Location: Misciano
(43.5000°N, 11.9500°E)
Time: 10:11:40
(UTC+00:00)

Cosmos 1725 Rocket - Pass Details

Date: 13 August 2020
Orbit: 961 x 991 km, 82.9° (Epoch: 20 September)

Event Time Altitude Azimuth Distance (km) Brightness Sun altitude
Exits shadow 21:04:44 47° 103° (ESE) 1,297 4.3 -24.8°
Maximum altitude 21:05:10 47° 90° (E) 1,285 4.3 -24.8°
Drops below altitude 10° 21:11:11 10° 19° (NNE) 2,763 6.8 -25.4°
Sets 21:13:48 0° 14° (NNE) 3,716 7.6 -25.7°
